Time,TemperatureF,DewpointF,PressureIn,WindDirection,WindDirectionDegrees,WindSpeedMPH,WindSpeedGustMPH,Humidity,HourlyPrecipIn,Conditions,Clouds,dailyrainin,SoftwareType,DateUTC
2013-04-27 00:02:00,58.5,55.8,28.54,North,0,13.0,13.0,91,0.00,,,0.00,meteohub,2013-04-27 05:02:00,
2013-04-27 00:07:00,58.3,55.6,28.54,NW,315,8.0,13.0,91,0.00,,,0.00,meteohub,2013-04-27 05:07:00,
2013-04-27 00:12:00,58.5,55.8,28.55,NW,315,15.0,15.0,91,0.00,,,0.00,meteohub,2013-04-27 05:12:00,
2013-04-27 00:17:00,58.5,55.8,28.54,NW,315,11.0,15.0,91,0.00,,,0.00,meteohub,2013-04-27 05:17:00,
2013-04-27 00:22:00,58.3,55.6,28.55,NW,315,10.0,15.0,91,0.00,,,0.00,meteohub,2013-04-27 05:22:00,
2013-04-27 00:27:00,58.3,55.9,28.55,North,0,11.0,15.0,92,0.00,,,0.00,meteohub,2013-04-27 05:27:00,
2013-04-27 00:32:00,58.5,56.1,28.55,NW,315,11.0,13.0,92,0.00,,,0.00,meteohub,2013-04-27 05:32:00,
2013-04-27 00:37:00,58.5,56.1,28.55,NW,315,9.0,15.0,92,0.00,,,0.00,meteohub,2013-04-27 05:37:00,
2013-04-27 00:42:00,58.6,56.3,28.56,WNW,293,11.0,15.0,92,0.00,,,0.00,meteohub,2013-04-27 05:42:00,
2013-04-27 00:47:00,59.0,56.7,28.56,NW,315,8.0,15.0,92,0.00,,,0.00,meteohub,2013-04-27 05:47:00,
2013-04-27 00:52:00,59.2,56.8,28.56,NW,315,10.0,15.0,92,0.00,,,0.00,meteohub,2013-04-27 05:52:00,
2013-04-27 00:57:00,59.0,56.3,28.56,North,0,11.0,15.0,91,0.00,,,0.00,meteohub,2013-04-27 05:57:00,
2013-04-27 01:02:00,59.2,56.5,28.56,NW,315,11.0,15.0,91,0.00,,,0.00,meteohub,2013-04-27 06:02:00,
2013-04-27 01:07:00,59.2,56.5,28.56,NW,315,9.0,15.0,91,0.00,,,0.00,meteohub,2013-04-27 06:07:00,
2013-04-27 01:12:00,59.2,56.5,28.57,NW,315,9.0,15.0,91,0.00,,,0.00,meteohub,2013-04-27 06:12:00,
2013-04-27 01:17:00,59.0,56.3,28.57,North,0,15.0,16.0,91,0.00,,,0.00,meteohub,2013-04-27 06:17:00,
2013-04-27 01:22:00,59.2,56.5,28.57,NW,315,13.0,16.0,91,0.00,,,0.00,meteohub,2013-04-27 06:22:00,
2013-04-27 01:27:00,59.2,56.3,28.57,North,0,11.0,17.0,90,0.00,,,0.00,meteohub,2013-04-27 06:27:00,
2013-04-27 01:32:00,59.4,56.1,28.58,WNW,293,15.0,17.0,89,0.00,,,0.00,meteohub,2013-04-27 06:32:00,
2013-04-27 01:37:00,59.4,56.1,28.58,NW,315,11.0,18.0,89,0.00,,,0.00,meteohub,2013-04-27 06:37:00,
2013-04-27 01:42:00,59.4,56.1,28.58,NW,315,9.0,18.0,89,0.00,,,0.00,meteohub,2013-04-27 06:42:00,
2013-04-27 01:47:00,59.4,56.1,28.58,North,0,14.0,18.0,89,0.00,,,0.00,meteohub,2013-04-27 06:47:00,
2013-04-27 01:52:00,59.5,56.3,28.58,NW,315,15.0,18.0,89,0.00,,,0.00,meteohub,2013-04-27 06:52:00,
2013-04-27 01:57:00,59.5,56.3,28.58,WNW,293,14.0,17.0,89,0.00,,,0.00,meteohub,2013-04-27 06:57:00,
2013-04-27 02:02:00,59.4,55.8,28.58,NW,315,14.0,16.0,88,0.00,,,0.00,meteohub,2013-04-27 07:02:00,
2013-04-27 02:07:00,59.4,55.8,28.58,NNW,338,17.0,17.0,88,0.00,,,0.00,meteohub,2013-04-27 07:07:00,
2013-04-27 02:12:00,59.4,56.1,28.58,North,0,11.0,17.0,89,0.00,,,0.00,meteohub,2013-04-27 07:12:00,
2013-04-27 02:17:00,59.2,55.9,28.57,North,0,14.0,17.0,89,0.00,,,0.00,meteohub,2013-04-27 07:17:00,
2013-04-27 02:22:00,59.0,55.8,28.57,NW,315,15.0,18.0,89,0.00,,,0.00,meteohub,2013-04-27 07:22:00,
2013-04-27 02:27:00,59.0,55.8,28.57,North,0,12.0,18.0,89,0.00,,,0.00,meteohub,2013-04-27 07:27:00,
2013-04-27 02:32:00,58.8,55.6,28.57,North,0,15.0,18.0,89,0.00,,,0.00,meteohub,2013-04-27 07:32:00,
2013-04-27 02:37:00,58.6,55.4,28.56,North,0,15.0,17.0,89,0.00,,,0.00,meteohub,2013-04-27 07:37:00,
2013-04-27 02:42:00,58.5,55.2,28.57,North,0,14.0,19.0,89,0.00,,,0.00,meteohub,2013-04-27 07:42:00,
2013-04-27 02:47:00,58.1,54.9,28.57,NW,315,14.0,19.0,89,0.00,,,0.00,meteohub,2013-04-27 07:47:00,
2013-04-27 02:52:00,57.9,54.7,28.56,NW,315,9.0,21.0,89,0.00,,,0.00,meteohub,2013-04-27 07:52:00,
2013-04-27 02:57:00,57.7,54.9,28.56,NE,45,8.0,21.0,90,0.00,,,0.00,meteohub,2013-04-27 07:57:00,
2013-04-27 03:02:00,57.4,54.5,28.56,NE,45,10.0,21.0,90,0.00,,,0.00,meteohub,2013-04-27 08:02:00,
2013-04-27 03:07:00,57.2,54.7,28.56,NE,45,8.0,12.0,91,0.00,,,0.00,meteohub,2013-04-27 08:07:00,
2013-04-27 03:12:00,57.2,54.9,28.56,North,0,7.0,11.0,92,0.00,,,0.00,meteohub,2013-04-27 08:12:00,
2013-04-27 03:17:00,56.7,54.3,28.56,North,0,11.0,11.0,92,0.00,,,0.00,meteohub,2013-04-27 08:17:00,
2013-04-27 03:22:00,56.5,54.1,28.56,North,0,4.0,11.0,92,0.00,,,0.00,meteohub,2013-04-27 08:22:00,
2013-04-27 03:27:00,56.1,53.8,28.56,North,0,6.0,11.0,92,0.00,,,0.00,meteohub,2013-04-27 08:27:00,
2013-04-27 03:32:00,55.8,53.8,28.57,North,0,7.0,11.0,93,0.00,,,0.00,meteohub,2013-04-27 08:32:00,
2013-04-27 03:37:00,55.6,53.6,28.57,North,0,2.0,10.0,93,0.00,,,0.00,meteohub,2013-04-27 08:37:00,
2013-04-27 03:42:00,55.4,53.8,28.57,NW,315,1.0,7.0,94,0.00,,,0.00,meteohub,2013-04-27 08:42:00,
2013-04-27 03:47:00,55.4,53.8,28.57,North,0,6.0,7.0,94,0.00,,,0.00,meteohub,2013-04-27 08:47:00,
2013-04-27 03:52:00,55.6,54.0,28.57,North,0,8.0,11.0,94,0.00,,,0.00,meteohub,2013-04-27 08:52:00,
2013-04-27 03:57:00,55.0,53.4,28.57,North,0,11.0,11.0,94,0.00,,,0.00,meteohub,2013-04-27 08:57:00,
2013-04-27 04:02:00,55.2,53.6,28.58,North,0,6.0,12.0,94,0.00,,,0.00,meteohub,2013-04-27 09:02:00,
2013-04-27 04:07:00,55.4,53.8,28.58,North,0,4.0,12.0,94,0.00,,,0.00,meteohub,2013-04-27 09:07:00,
2013-04-27 04:12:00,55.0,53.4,28.58,North,0,1.0,12.0,94,0.00,,,0.00,meteohub,2013-04-27 09:12:00,
2013-04-27 04:17:00,55.0,53.4,28.58,NW,315,9.0,9.0,94,0.00,,,0.00,meteohub,2013-04-27 09:17:00,
2013-04-27 04:22:00,54.5,53.1,28.58,WNW,293,9.0,9.0,95,0.00,,,0.00,meteohub,2013-04-27 09:22:00,
2013-04-27 04:27:00,54.3,52.9,28.58,North,0,5.0,9.0,95,0.00,,,0.00,meteohub,2013-04-27 09:27:00,
2013-04-27 04:32:00,54.3,52.9,28.58,West,270,7.0,9.0,95,0.00,,,0.00,meteohub,2013-04-27 09:32:00,
2013-04-27 04:37:00,54.3,52.9,28.58,North,0,10.0,11.0,95,0.00,,,0.00,meteohub,2013-04-27 09:37:00,
2013-04-27 04:42:00,54.3,52.9,28.58,WNW,293,10.0,11.0,95,0.00,,,0.00,meteohub,2013-04-27 09:42:00,
2013-04-27 04:47:00,54.5,53.1,28.58,NW,315,10.0,12.0,95,0.00,,,0.00,meteohub,2013-04-27 09:47:00,
2013-04-27 04:52:00,54.5,53.1,28.58,North,0,10.0,12.0,95,0.00,,,0.00,meteohub,2013-04-27 09:52:00,
2013-04-27 04:57:00,54.5,52.9,28.58,North,0,11.0,13.0,94,0.00,,,0.00,meteohub,2013-04-27 09:57:00,
2013-04-27 05:02:00,54.3,52.7,28.58,North,0,12.0,13.0,94,0.00,,,0.00,meteohub,2013-04-27 10:02:00,
2013-04-27 05:07:00,54.3,52.7,28.58,North,0,12.0,13.0,94,0.00,,,0.00,meteohub,2013-04-27 10:07:00,
2013-04-27 05:12:00,54.3,52.7,28.59,WNW,293,8.0,12.0,94,0.00,,,0.00,meteohub,2013-04-27 10:12:00,
2013-04-27 05:17:00,54.5,52.9,28.59,North,0,10.0,12.0,94,0.00,,,0.00,meteohub,2013-04-27 10:17:00,
2013-04-27 05:22:00,54.3,52.7,28.59,North,0,8.0,12.0,94,0.00,,,0.00,meteohub,2013-04-27 10:22:00,
2013-04-27 05:27:00,54.7,52.7,28.60,NE,45,11.0,12.0,93,0.00,,,0.00,meteohub,2013-04-27 10:27:00,
2013-04-27 05:32:00,54.7,52.3,28.60,WNW,293,15.0,18.0,92,0.00,,,0.00,meteohub,2013-04-27 10:32:00,
2013-04-27 05:37:00,54.5,52.2,28.60,WNW,293,12.0,18.0,92,0.00,,,0.00,meteohub,2013-04-27 10:37:00,
2013-04-27 05:42:00,54.5,52.2,28.60,NW,315,8.0,18.0,92,0.00,,,0.00,meteohub,2013-04-27 10:42:00,
2013-04-27 05:47:00,54.5,52.2,28.60,NW,315,11.0,15.0,92,0.00,,,0.00,meteohub,2013-04-27 10:47:00,
2013-04-27 05:52:00,54.5,52.2,28.60,NW,315,8.0,12.0,92,0.00,,,0.00,meteohub,2013-04-27 10:52:00,
2013-04-27 05:57:00,54.7,52.3,28.60,NE,45,14.0,14.0,92,0.00,,,0.00,meteohub,2013-04-27 10:57:00,
2013-04-27 06:02:00,54.7,52.3,28.60,North,0,10.0,14.0,92,0.00,,,0.00,meteohub,2013-04-27 11:02:00,
2013-04-27 06:07:00,54.5,52.2,28.60,North,0,11.0,15.0,92,0.00,,,0.00,meteohub,2013-04-27 11:07:00,
2013-04-27 06:12:00,54.3,52.0,28.60,North,0,12.0,15.0,92,0.00,,,0.00,meteohub,2013-04-27 11:12:00,
2013-04-27 06:17:00,54.5,52.2,28.60,North,0,11.0,15.0,92,0.00,,,0.00,meteohub,2013-04-27 11:17:00,
2013-04-27 06:22:00,54.7,52.2,28.61,NW,315,8.0,15.0,91,0.00,,,0.00,meteohub,2013-04-27 11:22:00,
2013-04-27 06:27:00,54.3,51.8,28.61,North,0,4.0,15.0,91,0.00,,,0.00,meteohub,2013-04-27 11:27:00,
2013-04-27 06:32:00,54.3,51.8,28.61,North,0,14.0,14.0,91,0.00,,,0.00,meteohub,2013-04-27 11:32:00,
2013-04-27 06:37:00,54.1,51.6,28.62,NE,45,7.0,15.0,91,0.00,,,0.00,meteohub,2013-04-27 11:37:00,
2013-04-27 06:42:00,54.5,52.0,28.62,North,0,8.0,15.0,91,0.00,,,0.00,meteohub,2013-04-27 11:42:00,
2013-04-27 06:47:00,54.3,51.8,28.62,NE,45,11.0,15.0,91,0.00,,,0.00,meteohub,2013-04-27 11:47:00,
2013-04-27 06:52:00,54.5,52.0,28.62,North,0,7.0,17.0,91,0.00,,,0.00,meteohub,2013-04-27 11:52:00,
2013-04-27 06:57:00,54.5,52.0,28.63,NW,315,4.0,17.0,91,0.00,,,0.00,meteohub,2013-04-27 11:57:00,
2013-04-27 07:02:00,54.5,51.6,28.63,WNW,293,1.0,17.0,90,0.00,,,0.00,meteohub,2013-04-27 12:02:00,
2013-04-27 07:07:00,54.5,51.6,28.63,North,0,2.0,14.0,90,0.00,,,0.00,meteohub,2013-04-27 12:07:00,
2013-04-27 07:12:00,54.7,51.4,28.63,North,0,8.0,8.0,89,0.00,,,0.00,meteohub,2013-04-27 12:12:00,
2013-04-27 07:17:00,54.7,51.3,28.63,North,0,9.0,11.0,88,0.00,,,0.00,meteohub,2013-04-27 12:17:00,
2013-04-27 07:22:00,55.0,51.6,28.63,NW,315,8.0,11.0,88,0.00,,,0.00,meteohub,2013-04-27 12:22:00,
2013-04-27 07:27:00,54.9,51.1,28.64,North,0,13.0,13.0,87,0.00,,,0.00,meteohub,2013-04-27 12:27:00,
2013-04-27 07:32:00,54.7,50.9,28.64,North,0,8.0,15.0,87,0.00,,,0.00,meteohub,2013-04-27 12:32:00,
2013-04-27 07:37:00,54.9,51.1,28.64,WNW,293,8.0,15.0,87,0.00,,,0.00,meteohub,2013-04-27 12:37:00,
2013-04-27 07:42:00,54.9,51.1,28.64,North,0,5.0,15.0,87,0.00,,,0.00,meteohub,2013-04-27 12:42:00,
2013-04-27 07:47:00,55.0,51.3,28.65,NW,315,9.0,10.0,87,0.00,,,0.00,meteohub,2013-04-27 12:47:00,
2013-04-27 07:52:00,55.2,51.4,28.65,NW,315,7.0,11.0,87,0.00,,,0.00,meteohub,2013-04-27 12:52:00,
2013-04-27 07:57:00,55.0,51.3,28.65,North,0,5.0,12.0,87,0.00,,,0.00,meteohub,2013-04-27 12:57:00,
2013-04-27 08:02:00,55.2,51.1,28.66,NW,315,8.0,12.0,86,0.00,,,0.00,meteohub,2013-04-27 13:02:00,
2013-04-27 08:07:00,55.2,51.1,28.66,North,0,7.0,12.0,86,0.00,,,0.00,meteohub,2013-04-27 13:07:00,
2013-04-27 08:12:00,55.4,50.9,28.66,North,0,8.0,11.0,85,0.00,,,0.00,meteohub,2013-04-27 13:12:00,
2013-04-27 08:17:00,55.9,51.3,28.66,NW,315,7.0,12.0,84,0.00,,,0.00,meteohub,2013-04-27 13:17:00,
2013-04-27 08:22:00,55.9,51.3,28.66,NW,315,8.0,12.0,84,0.00,,,0.00,meteohub,2013-04-27 13:22:00,
2013-04-27 08:27:00,56.1,51.1,28.66,NW,315,8.0,10.0,83,0.00,,,0.00,meteohub,2013-04-27 13:27:00,
2013-04-27 08:32:00,56.5,51.4,28.66,North,0,10.0,10.0,83,0.00,,,0.00,meteohub,2013-04-27 13:32:00,
2013-04-27 08:37:00,56.8,51.4,28.66,NW,315,11.0,11.0,82,0.00,,,0.00,meteohub,2013-04-27 13:37:00,
2013-04-27 08:42:00,57.4,51.3,28.66,North,0,9.0,12.0,80,0.00,,,0.00,meteohub,2013-04-27 13:42:00,
2013-04-27 08:48:00,57.2,51.1,28.66,WNW,293,11.0,12.0,80,0.00,,,0.00,meteohub,2013-04-27 13:48:00,
2013-04-27 08:53:00,57.6,51.4,28.67,North,0,12.0,15.0,80,0.00,,,0.00,meteohub,2013-04-27 13:53:00,
2013-04-27 08:58:00,58.5,51.6,28.66,NW,315,12.0,15.0,78,0.00,,,0.00,meteohub,2013-04-27 13:58:00,
2013-04-27 09:03:00,58.5,51.6,28.67,NW,315,9.0,15.0,78,0.00,,,0.00,meteohub,2013-04-27 14:03:00,
2013-04-27 09:08:00,57.9,51.4,28.66,NW,315,8.0,13.0,79,0.00,,,0.00,meteohub,2013-04-27 14:08:00,
2013-04-27 09:13:00,57.7,51.6,28.67,NW,315,8.0,13.0,80,0.00,,,0.00,meteohub,2013-04-27 14:13:00,
2013-04-27 09:18:00,57.9,51.8,28.67,NW,315,11.0,13.0,80,0.00,,,0.00,meteohub,2013-04-27 14:18:00,
2013-04-27 09:23:00,59.2,52.3,28.66,North,0,2.0,13.0,78,0.00,,,0.00,meteohub,2013-04-27 14:23:00,
2013-04-27 09:28:00,59.5,52.3,28.66,NW,315,8.0,11.0,77,0.00,,,0.00,meteohub,2013-04-27 14:28:00,
2013-04-27 09:33:00,59.9,52.3,28.66,North,0,9.0,12.0,76,0.00,,,0.00,meteohub,2013-04-27 14:33:00,
2013-04-27 09:38:00,60.3,52.0,28.66,NW,315,9.0,12.0,74,0.00,,,0.00,meteohub,2013-04-27 14:38:00,
2013-04-27 09:43:00,60.1,51.8,28.66,SW,225,10.0,12.0,74,0.00,,,0.00,meteohub,2013-04-27 14:43:00,
2013-04-27 09:48:00,59.9,52.0,28.66,North,0,8.0,10.0,75,0.00,,,0.00,meteohub,2013-04-27 14:48:00,
2013-04-27 09:53:00,60.3,51.6,28.66,NW,315,1.0,10.0,73,0.00,,,0.00,meteohub,2013-04-27 14:53:00,
2013-04-27 09:58:00,60.4,51.8,28.66,North,0,8.0,10.0,73,0.00,,,0.00,meteohub,2013-04-27 14:58:00,
2013-04-27 10:03:00,60.8,51.8,28.66,West,270,11.0,11.0,72,0.00,,,0.00,meteohub,2013-04-27 15:03:00,
2013-04-27 10:08:00,60.8,51.8,28.66,North,0,13.0,13.0,72,0.00,,,0.00,meteohub,2013-04-27 15:08:00,
2013-04-27 10:13:00,61.2,51.6,28.66,North,0,9.0,11.0,71,0.00,,,0.00,meteohub,2013-04-27 15:13:00,
2013-04-27 10:18:00,61.0,52.0,28.66,North,0,8.0,13.0,72,0.00,,,0.00,meteohub,2013-04-27 15:18:00,
2013-04-27 10:23:00,61.9,52.0,28.66,NW,315,2.0,13.0,70,0.00,,,0.00,meteohub,2013-04-27 15:23:00,
2013-04-27 10:29:00,62.2,51.6,28.66,NW,315,8.0,10.0,68,0.00,,,0.00,meteohub,2013-04-27 15:29:00,
2013-04-27 10:34:00,62.6,52.3,28.66,NW,315,8.0,11.0,69,0.00,,,0.00,meteohub,2013-04-27 15:34:00,
2013-04-27 10:39:00,63.7,51.6,28.66,North,0,7.0,11.0,65,0.00,,,0.00,meteohub,2013-04-27 15:39:00,
2013-04-27 10:44:00,63.5,51.4,28.66,West,270,6.0,11.0,65,0.00,,,0.00,meteohub,2013-04-27 15:44:00,
2013-04-27 10:49:00,63.0,51.4,28.66,North,0,8.0,11.0,66,0.00,,,0.00,meteohub,2013-04-27 15:49:00,
2013-04-27 10:54:00,63.5,52.0,28.66,NE,45,7.0,9.0,66,0.00,,,0.00,meteohub,2013-04-27 15:54:00,
2013-04-27 10:59:00,64.2,51.8,28.66,West,270,5.0,9.0,64,0.00,,,0.00,meteohub,2013-04-27 15:59:00,
2013-04-27 11:04:00,64.4,51.6,28.66,NE,45,8.0,9.0,63,0.00,,,0.00,meteohub,2013-04-27 16:04:00,
2013-04-27 11:09:00,65.3,52.0,28.66,NE,45,8.0,8.0,62,0.00,,,0.00,meteohub,2013-04-27 16:09:00,
2013-04-27 11:14:00,65.7,51.8,28.66,North,0,8.0,8.0,61,0.00,,,0.00,meteohub,2013-04-27 16:14:00,
2013-04-27 11:19:00,66.0,52.2,28.66,NW,315,2.0,8.0,61,0.00,,,0.00,meteohub,2013-04-27 16:19:00,
2013-04-27 11:24:00,66.0,52.2,28.66,North,0,10.0,10.0,61,0.00,,,0.00,meteohub,2013-04-27 16:24:00,
2013-04-27 11:29:00,66.6,52.7,28.66,North,0,8.0,10.0,61,0.00,,,0.00,meteohub,2013-04-27 16:29:00,
2013-04-27 11:34:00,66.9,52.5,28.66,NW,315,8.0,11.0,60,0.00,,,0.00,meteohub,2013-04-27 16:34:00,
2013-04-27 11:39:00,67.3,52.5,28.66,NE,45,4.0,11.0,59,0.00,,,0.00,meteohub,2013-04-27 16:39:00,
2013-04-27 11:44:00,67.8,52.0,28.66,NE,45,11.0,11.0,57,0.00,,,0.00,meteohub,2013-04-27 16:44:00,
2013-04-27 11:49:00,68.2,53.2,28.66,NW,315,2.0,8.0,59,0.00,,,0.00,meteohub,2013-04-27 16:49:00,
2013-04-27 11:54:00,68.2,52.3,28.66,NW,315,3.0,11.0,57,0.00,,,0.00,meteohub,2013-04-27 16:54:00,
2013-04-27 11:59:00,68.9,52.5,28.66,NW,315,4.0,11.0,56,0.00,,,0.00,meteohub,2013-04-27 16:59:00,
2013-04-27 12:04:00,69.1,52.7,28.65,NW,315,2.0,10.0,56,0.00,,,0.00,meteohub,2013-04-27 17:04:00,
2013-04-27 12:09:00,69.6,52.7,28.65,NW,315,6.0,8.0,55,0.00,,,0.00,meteohub,2013-04-27 17:09:00,
2013-04-27 12:14:00,70.0,52.5,28.65,NW,315,4.0,9.0,54,0.00,,,0.00,meteohub,2013-04-27 17:14:00,
2013-04-27 12:19:00,70.3,51.8,28.66,North,0,7.0,9.0,52,0.00,,,0.00,meteohub,2013-04-27 17:19:00,
2013-04-27 12:24:00,70.7,52.2,28.65,NW,315,8.0,9.0,52,0.00,,,0.00,meteohub,2013-04-27 17:24:00,
2013-04-27 12:29:00,70.5,52.5,28.65,WSW,248,3.0,8.0,53,0.00,,,0.00,meteohub,2013-04-27 17:29:00,
2013-04-27 12:34:00,70.7,52.2,28.64,NW,315,5.0,8.0,52,0.00,,,0.00,meteohub,2013-04-27 17:34:00,
2013-04-27 12:39:00,71.4,51.8,28.64,NW,315,9.0,9.0,50,0.00,,,0.00,meteohub,2013-04-27 17:39:00,
2013-04-27 12:44:00,71.2,51.6,28.64,NW,315,8.0,8.0,50,0.00,,,0.00,meteohub,2013-04-27 17:44:00,
2013-04-27 12:49:00,71.4,51.3,28.64,North,0,10.0,14.0,49,0.00,,,0.00,meteohub,2013-04-27 17:49:00,
2013-04-27 12:54:00,71.2,52.2,28.64,NW,315,1.0,14.0,51,0.00,,,0.00,meteohub,2013-04-27 17:54:00,
2013-04-27 12:59:00,71.6,52.0,28.63,NW,315,7.0,14.0,50,0.00,,,0.00,meteohub,2013-04-27 17:59:00,
2013-04-27 13:05:00,72.3,51.4,28.63,North,0,4.0,12.0,48,0.00,,,0.00,meteohub,2013-04-27 18:05:00,
2013-04-27 13:10:00,72.0,50.7,28.63,NE,45,1.0,8.0,47,0.00,,,0.00,meteohub,2013-04-27 18:10:00,
2013-04-27 13:15:00,72.7,50.7,28.63,NW,315,5.0,8.0,46,0.00,,,0.00,meteohub,2013-04-27 18:15:00,
2013-04-27 13:20:00,73.0,52.2,28.63,NE,45,8.0,8.0,48,0.00,,,0.00,meteohub,2013-04-27 18:20:00,
2013-04-27 13:25:00,72.9,52.0,28.62,NW,315,3.0,9.0,48,0.00,,,0.00,meteohub,2013-04-27 18:25:00,
2013-04-27 13:30:00,73.0,50.4,28.61,NE,45,11.0,11.0,45,0.00,,,0.00,meteohub,2013-04-27 18:30:00,
2013-04-27 13:35:00,73.2,49.5,28.61,NE,45,8.0,9.0,43,0.00,,,0.00,meteohub,2013-04-27 18:35:00,
2013-04-27 13:40:00,73.6,50.4,28.61,North,0,4.0,11.0,44,0.00,,,0.00,meteohub,2013-04-27 18:40:00,
2013-04-27 13:45:00,74.7,50.0,28.61,North,0,8.0,11.0,42,0.00,,,0.00,meteohub,2013-04-27 18:45:00,
2013-04-27 13:50:00,74.8,50.9,28.61,NW,315,8.0,11.0,43,0.00,,,0.00,meteohub,2013-04-27 18:50:00,
2013-04-27 13:55:00,74.8,48.9,28.61,North,0,9.0,9.0,40,0.00,,,0.00,meteohub,2013-04-27 18:55:00,
2013-04-27 14:00:00,75.4,50.0,28.61,North,0,6.0,8.0,41,0.00,,,0.00,meteohub,2013-04-27 19:00:00,
2013-04-27 14:05:00,75.9,49.8,28.61,NW,315,7.0,11.0,40,0.00,,,0.00,meteohub,2013-04-27 19:05:00,
2013-04-27 14:10:00,75.6,50.2,28.60,West,270,5.0,11.0,41,0.00,,,0.00,meteohub,2013-04-27 19:10:00,
2013-04-27 14:15:00,75.6,48.9,28.60,East,90,5.0,11.0,39,0.00,,,0.00,meteohub,2013-04-27 19:15:00,
2013-04-27 14:20:00,75.7,49.1,28.60,NE,45,8.0,11.0,39,0.00,,,0.00,meteohub,2013-04-27 19:20:00,
2013-04-27 14:25:00,75.6,48.9,28.60,West,270,2.0,11.0,39,0.00,,,0.00,meteohub,2013-04-27 19:25:00,
2013-04-27 14:30:00,75.7,49.6,28.59,NE,45,1.0,11.0,40,0.00,,,0.00,meteohub,2013-04-27 19:30:00,
2013-04-27 14:35:00,76.1,48.6,28.58,West,270,4.0,8.0,38,0.00,,,0.00,meteohub,2013-04-27 19:35:00,
2013-04-27 14:40:00,76.5,47.5,28.59,NW,315,6.0,8.0,36,0.00,,,0.00,meteohub,2013-04-27 19:40:00,
2013-04-27 14:45:00,77.0,47.3,28.58,NW,315,1.0,8.0,35,0.00,,,0.00,meteohub,2013-04-27 19:45:00,
2013-04-27 14:50:00,76.8,47.1,28.58,NE,45,12.0,12.0,35,0.00,,,0.00,meteohub,2013-04-27 19:50:00,
2013-04-27 14:55:00,77.4,47.5,28.58,West,270,4.0,13.0,35,0.00,,,0.00,meteohub,2013-04-27 19:55:00,
2013-04-27 15:00:00,77.4,48.4,28.57,East,90,1.0,13.0,36,0.00,,,0.00,meteohub,2013-04-27 20:00:00,
2013-04-27 15:05:00,77.9,47.3,28.57,NE,45,2.0,13.0,34,0.00,,,0.00,meteohub,2013-04-27 20:05:00,
2013-04-27 15:10:00,77.9,48.0,28.57,NW,315,3.0,8.0,35,0.00,,,0.00,meteohub,2013-04-27 20:10:00,
2013-04-27 15:15:00,78.3,45.1,28.57,NE,45,2.0,8.0,31,0.00,,,0.00,meteohub,2013-04-27 20:15:00,
2013-04-27 15:20:00,78.6,44.6,28.57,East,90,4.0,9.0,30,0.00,,,0.00,meteohub,2013-04-27 20:20:00,
2013-04-27 15:25:00,78.6,44.6,28.56,NE,45,2.0,9.0,30,0.00,,,0.00,meteohub,2013-04-27 20:25:00,
2013-04-27 15:30:00,79.2,44.2,28.56,North,0,7.0,9.0,29,0.00,,,0.00,meteohub,2013-04-27 20:30:00,
2013-04-27 15:35:00,79.0,43.2,28.56,North,0,8.0,8.0,28,0.00,,,0.00,meteohub,2013-04-27 20:35:00,
2013-04-27 15:40:00,79.2,44.2,28.55,North,0,4.0,9.0,29,0.00,,,0.00,meteohub,2013-04-27 20:40:00,
2013-04-27 15:45:00,78.8,44.8,28.56,North,0,11.0,14.0,30,0.00,,,0.00,meteohub,2013-04-27 20:45:00,
2013-04-27 15:50:00,78.8,42.1,28.55,North,0,7.0,17.0,27,0.00,,,0.00,meteohub,2013-04-27 20:50:00,
2013-04-27 15:55:00,79.2,42.3,28.55,North,0,11.0,17.0,27,0.00,,,0.00,meteohub,2013-04-27 20:55:00,
2013-04-27 16:00:00,79.0,44.1,28.55,NW,315,8.0,15.0,29,0.00,,,0.00,meteohub,2013-04-27 21:00:00,
2013-04-27 16:06:00,79.2,43.2,28.55,NE,45,5.0,11.0,28,0.00,,,0.00,meteohub,2013-04-27 21:06:00,
2013-04-27 16:11:00,78.8,42.1,28.54,West,270,8.0,11.0,27,0.00,,,0.00,meteohub,2013-04-27 21:11:00,
2013-04-27 16:16:00,78.8,42.1,28.54,NW,315,4.0,10.0,27,0.00,,,0.00,meteohub,2013-04-27 21:16:00,
2013-04-27 16:21:00,79.0,45.0,28.54,NW,315,1.0,10.0,30,0.00,,,0.00,meteohub,2013-04-27 21:21:00,
2013-04-27 16:26:00,79.3,41.5,28.53,North,0,6.0,8.0,26,0.00,,,0.00,meteohub,2013-04-27 21:26:00,
2013-04-27 16:31:00,80.1,38.8,28.53,NE,45,8.0,8.0,23,0.00,,,0.00,meteohub,2013-04-27 21:31:00,
2013-04-27 16:36:00,79.9,38.8,28.54,NE,45,11.0,13.0,23,0.00,,,0.00,meteohub,2013-04-27 21:36:00,
2013-04-27 16:41:00,79.7,41.7,28.53,North,0,3.0,13.0,26,0.00,,,0.00,meteohub,2013-04-27 21:41:00,
2013-04-27 16:46:00,79.7,40.8,28.53,North,0,4.0,13.0,25,0.00,,,0.00,meteohub,2013-04-27 21:46:00,
2013-04-27 16:51:00,79.3,39.4,28.53,ENE,68,11.0,12.0,24,0.00,,,0.00,meteohub,2013-04-27 21:51:00,
2013-04-27 16:56:00,79.0,40.1,28.52,North,0,2.0,12.0,25,0.00,,,0.00,meteohub,2013-04-27 21:56:00,
2013-04-27 17:01:00,79.2,39.2,28.53,North,0,10.0,12.0,24,0.00,,,0.00,meteohub,2013-04-27 22:01:00,
2013-04-27 17:06:00,79.7,39.7,28.52,North,0,6.0,11.0,24,0.00,,,0.00,meteohub,2013-04-27 22:06:00,
2013-04-27 17:11:00,79.9,41.9,28.52,NW,315,4.0,11.0,26,0.00,,,0.00,meteohub,2013-04-27 22:11:00,
2013-04-27 17:16:00,80.4,36.9,28.52,NE,45,9.0,10.0,21,0.00,,,0.00,meteohub,2013-04-27 22:16:00,
2013-04-27 17:21:00,79.7,35.1,28.52,NW,315,7.0,12.0,20,0.00,,,0.00,meteohub,2013-04-27 22:21:00,
2013-04-27 17:26:00,79.9,38.8,28.52,North,0,7.0,12.0,23,0.00,,,0.00,meteohub,2013-04-27 22:26:00,
2013-04-27 17:31:00,79.5,39.6,28.52,NE,45,8.0,12.0,24,0.00,,,0.00,meteohub,2013-04-27 22:31:00,
2013-04-27 17:36:00,79.7,38.7,28.52,NW,315,2.0,11.0,23,0.00,,,0.00,meteohub,2013-04-27 22:36:00,
2013-04-27 17:41:00,79.7,32.4,28.52,NW,315,8.0,11.0,18,0.00,,,0.00,meteohub,2013-04-27 22:41:00,
2013-04-27 17:46:00,79.9,35.2,28.52,East,90,6.0,10.0,20,0.00,,,0.00,meteohub,2013-04-27 22:46:00,
2013-04-27 17:51:00,79.9,36.5,28.51,North,0,1.0,10.0,21,0.00,,,0.00,meteohub,2013-04-27 22:51:00,
2013-04-27 17:56:00,79.7,38.7,28.51,NE,45,2.0,11.0,23,0.00,,,0.00,meteohub,2013-04-27 22:56:00,
2013-04-27 18:01:00,79.2,38.1,28.52,NE,45,2.0,11.0,23,0.00,,,0.00,meteohub,2013-04-27 23:01:00,
2013-04-27 18:06:00,78.8,37.9,28.52,NE,45,8.0,11.0,23,0.00,,,0.00,meteohub,2013-04-27 23:06:00,
2013-04-27 18:11:00,78.4,37.6,28.52,NE,45,12.0,12.0,23,0.00,,,0.00,meteohub,2013-04-27 23:11:00,
2013-04-27 18:16:00,78.6,38.8,28.51,NE,45,9.0,12.0,24,0.00,,,0.00,meteohub,2013-04-27 23:16:00,
2013-04-27 18:21:00,78.4,38.7,28.51,ENE,68,9.0,12.0,24,0.00,,,0.00,meteohub,2013-04-27 23:21:00,
2013-04-27 18:26:00,78.4,38.7,28.51,NE,45,3.0,12.0,24,0.00,,,0.00,meteohub,2013-04-27 23:26:00,
2013-04-27 18:31:00,77.9,38.1,28.51,North,0,8.0,11.0,24,0.00,,,0.00,meteohub,2013-04-27 23:31:00,
2013-04-27 18:36:00,77.5,37.9,28.51,East,90,8.0,12.0,24,0.00,,,0.00,meteohub,2013-04-27 23:36:00,
2013-04-27 18:41:00,77.5,37.9,28.51,NE,45,11.0,12.0,24,0.00,,,0.00,meteohub,2013-04-27 23:41:00,
2013-04-27 18:46:00,77.4,40.8,28.51,NE,45,10.0,13.0,27,0.00,,,0.00,meteohub,2013-04-27 23:46:00,
2013-04-27 18:51:00,77.2,39.6,28.52,NE,45,7.0,13.0,26,0.00,,,0.00,meteohub,2013-04-27 23:51:00,
2013-04-27 18:56:00,76.8,39.4,28.51,East,90,6.0,11.0,26,0.00,,,0.00,meteohub,2013-04-27 23:56:00,
2013-04-27 19:01:00,77.0,40.5,28.51,East,90,9.0,11.0,27,0.00,,,0.00,meteohub,2013-04-28 00:01:00,
2013-04-27 19:06:00,76.8,39.4,28.51,NE,45,7.0,10.0,26,0.00,,,0.00,meteohub,2013-04-28 00:06:00,
2013-04-27 19:11:00,76.3,40.8,28.51,NE,45,5.0,12.0,28,0.00,,,0.00,meteohub,2013-04-28 00:11:00,
2013-04-27 19:16:00,76.1,42.4,28.51,East,90,7.0,12.0,30,0.00,,,0.00,meteohub,2013-04-28 00:16:00,
2013-04-27 19:21:00,75.7,43.0,28.51,East,90,10.0,12.0,31,0.00,,,0.00,meteohub,2013-04-28 00:21:00,
2013-04-27 19:26:00,75.4,43.5,28.51,NE,45,6.0,11.0,32,0.00,,,0.00,meteohub,2013-04-28 00:26:00,
2013-04-27 19:31:00,74.8,43.9,28.51,NE,45,8.0,11.0,33,0.00,,,0.00,meteohub,2013-04-28 00:31:00,
2013-04-27 19:36:00,74.7,44.4,28.51,NE,45,5.0,11.0,34,0.00,,,0.00,meteohub,2013-04-28 00:36:00,
2013-04-27 19:41:00,74.5,44.2,28.51,NE,45,7.0,10.0,34,0.00,,,0.00,meteohub,2013-04-28 00:41:00,
2013-04-27 19:46:00,73.9,44.6,28.51,East,90,4.0,10.0,35,0.00,,,0.00,meteohub,2013-04-28 00:46:00,
2013-04-27 19:52:00,73.9,45.3,28.51,East,90,5.0,10.0,36,0.00,,,0.00,meteohub,2013-04-28 00:52:00,
2013-04-27 19:57:00,73.4,45.5,28.51,East,90,4.0,9.0,37,0.00,,,0.00,meteohub,2013-04-28 00:57:00,
2013-04-27 20:02:00,72.7,45.7,28.51,East,90,5.0,8.0,38,0.00,,,0.00,meteohub,2013-04-28 01:02:00,
2013-04-27 20:07:00,72.0,46.4,28.51,East,90,7.0,8.0,40,0.00,,,0.00,meteohub,2013-04-28 01:07:00,
2013-04-27 20:12:00,71.6,46.6,28.51,East,90,7.0,8.0,41,0.00,,,0.00,meteohub,2013-04-28 01:12:00,
2013-04-27 20:17:00,70.9,47.3,28.51,East,90,6.0,8.0,43,0.00,,,0.00,meteohub,2013-04-28 01:17:00,
2013-04-27 20:22:00,70.7,48.4,28.51,East,90,5.0,8.0,45,0.00,,,0.00,meteohub,2013-04-28 01:22:00,
2013-04-27 20:27:00,70.0,48.2,28.51,East,90,4.0,8.0,46,0.00,,,0.00,meteohub,2013-04-28 01:27:00,
2013-04-27 20:32:00,69.6,48.6,28.51,East,90,6.0,7.0,47,0.00,,,0.00,meteohub,2013-04-28 01:32:00,
2013-04-27 20:37:00,68.9,48.9,28.51,East,90,7.0,8.0,49,0.00,,,0.00,meteohub,2013-04-28 01:37:00,
2013-04-27 20:42:00,68.9,48.9,28.51,East,90,7.0,8.0,49,0.00,,,0.00,meteohub,2013-04-28 01:42:00,
2013-04-27 20:47:00,68.9,48.9,28.51,East,90,8.0,9.0,49,0.00,,,0.00,meteohub,2013-04-28 01:47:00,
2013-04-27 20:52:00,68.4,48.9,28.51,East,90,6.0,9.0,50,0.00,,,0.00,meteohub,2013-04-28 01:52:00,
2013-04-27 20:57:00,68.2,49.3,28.51,East,90,8.0,9.0,51,0.00,,,0.00,meteohub,2013-04-28 01:57:00,
2013-04-27 21:02:00,67.5,49.8,28.51,East,90,4.0,9.0,53,0.00,,,0.00,meteohub,2013-04-28 02:02:00,
2013-04-27 21:07:00,67.5,49.8,28.51,East,90,5.0,9.0,53,0.00,,,0.00,meteohub,2013-04-28 02:07:00,
2013-04-27 21:12:00,66.9,49.3,28.51,East,90,6.0,9.0,53,0.00,,,0.00,meteohub,2013-04-28 02:12:00,
2013-04-27 21:17:00,66.9,49.3,28.51,East,90,5.0,8.0,53,0.00,,,0.00,meteohub,2013-04-28 02:17:00,
2013-04-27 21:22:00,66.7,49.1,28.51,East,90,3.0,6.0,53,0.00,,,0.00,meteohub,2013-04-28 02:22:00,
2013-04-27 21:27:00,66.6,48.9,28.52,East,90,4.0,6.0,53,0.00,,,0.00,meteohub,2013-04-28 02:27:00,
2013-04-27 21:32:00,66.2,48.6,28.52,East,90,3.0,6.0,53,0.00,,,0.00,meteohub,2013-04-28 02:32:00,
2013-04-27 21:37:00,66.4,49.3,28.52,East,90,4.0,5.0,54,0.00,,,0.00,meteohub,2013-04-28 02:37:00,
2013-04-27 21:42:00,65.8,49.3,28.52,East,90,4.0,5.0,55,0.00,,,0.00,meteohub,2013-04-28 02:42:00,
2013-04-27 21:47:00,65.8,49.3,28.52,East,90,4.0,5.0,55,0.00,,,0.00,meteohub,2013-04-28 02:47:00,
2013-04-27 21:52:00,65.5,49.3,28.52,East,90,4.0,5.0,56,0.00,,,0.00,meteohub,2013-04-28 02:52:00,
2013-04-27 21:57:00,65.1,49.1,28.52,East,90,6.0,6.0,56,0.00,,,0.00,meteohub,2013-04-28 02:57:00,
2013-04-27 22:02:00,64.9,48.9,28.52,East,90,6.0,7.0,56,0.00,,,0.00,meteohub,2013-04-28 03:02:00,
2013-04-27 22:07:00,65.3,49.3,28.52,East,90,4.0,7.0,56,0.00,,,0.00,meteohub,2013-04-28 03:07:00,
2013-04-27 22:12:00,65.1,49.1,28.52,East,90,5.0,7.0,56,0.00,,,0.00,meteohub,2013-04-28 03:12:00,
2013-04-27 22:17:00,64.9,48.9,28.52,East,90,7.0,8.0,56,0.00,,,0.00,meteohub,2013-04-28 03:17:00,
2013-04-27 22:22:00,64.4,48.9,28.52,East,90,6.0,8.0,57,0.00,,,0.00,meteohub,2013-04-28 03:22:00,
2013-04-27 22:27:00,64.4,49.3,28.52,East,90,6.0,8.0,58,0.00,,,0.00,meteohub,2013-04-28 03:27:00,
2013-04-27 22:32:00,64.0,49.5,28.52,East,90,7.0,7.0,59,0.00,,,0.00,meteohub,2013-04-28 03:32:00,
2013-04-27 22:37:00,63.9,49.3,28.52,NE,45,5.0,9.0,59,0.00,,,0.00,meteohub,2013-04-28 03:37:00,
2013-04-27 22:42:00,63.9,49.6,28.53,East,90,6.0,9.0,60,0.00,,,0.00,meteohub,2013-04-28 03:42:00,
2013-04-27 22:47:00,64.0,49.8,28.52,ESE,113,8.0,9.0,60,0.00,,,0.00,meteohub,2013-04-28 03:47:00,
2013-04-27 22:52:00,63.7,50.0,28.52,East,90,5.0,8.0,61,0.00,,,0.00,meteohub,2013-04-28 03:52:00,
2013-04-27 22:57:00,63.5,50.2,28.52,East,90,7.0,9.0,62,0.00,,,0.00,meteohub,2013-04-28 03:57:00,
2013-04-27 23:01:00,63.3,50.0,28.52,East,90,8.0,9.0,62,0.00,,,0.00,meteohub,2013-04-28 04:01:00,
2013-04-27 23:02:00,63.5,50.2,28.52,East,90,5.0,9.0,62,0.00,,,0.00,meteohub,2013-04-28 04:02:00,
2013-04-27 23:07:00,63.0,50.2,28.52,East,90,5.0,9.0,63,0.00,,,0.00,meteohub,2013-04-28 04:07:00,
2013-04-27 23:12:00,62.8,50.4,28.52,East,90,8.0,8.0,64,0.00,,,0.00,meteohub,2013-04-28 04:12:00,
2013-04-27 23:17:00,62.4,50.0,28.52,East,90,7.0,8.0,64,0.00,,,0.00,meteohub,2013-04-28 04:17:00,
2013-04-27 23:22:00,62.4,50.5,28.52,East,90,7.0,8.0,65,0.00,,,0.00,meteohub,2013-04-28 04:22:00,
2013-04-27 23:27:00,61.9,50.4,28.51,East,90,8.0,8.0,66,0.00,,,0.00,meteohub,2013-04-28 04:27:00,
2013-04-27 23:32:00,61.3,50.4,28.51,East,90,7.0,9.0,67,0.00,,,0.00,meteohub,2013-04-28 04:32:00,
2013-04-27 23:37:00,61.3,50.4,28.51,ESE,113,6.0,9.0,67,0.00,,,0.00,meteohub,2013-04-28 04:37:00,
2013-04-27 23:42:00,61.0,50.4,28.51,East,90,5.0,9.0,68,0.00,,,0.00,meteohub,2013-04-28 04:42:00,
2013-04-27 23:47:00,60.8,50.5,28.51,SE,135,7.0,7.0,69,0.00,,,0.00,meteohub,2013-04-28 04:47:00,
2013-04-27 23:52:00,60.4,50.5,28.51,East,90,6.0,7.0,70,0.00,,,0.00,meteohub,2013-04-28 04:52:00,
2013-04-27 23:57:00,60.6,51.1,28.51,ESE,113,6.0,8.0,71,0.00,,,0.00,meteohub,2013-04-28 04:57:00,